Погода в Гате

Ливия     24°57′57″N   10°11′01″E
темп.,
°C
ветер,
м/с
пор.,
м/с
влажн.,
%
обл.,
%
осадки,
мм/ч
давл.,
гПа
погр.,
м
28 июня, вт
вт2823:00+34вюв71390 0.0 1013268
02:00+31юв23110 0.0 101247
05:00+29ююв12140 0.0 101212
08:00+31ю23130 0.0 1014144
11:00+37юв56103 0.0 10132605
14:00+39вюв6690 0.0 10123967
17:00+40вюв6585 0.0 10104821
20:00+37вюв56917 0.0 1010106
29 июня, ср
ср2923:00+34вюв471129 0.0 1012115
02:00+33вюв914125 0.0 1012314
05:00+30ююв34138 0.0 101267
08:00+31юв13130 0.0 1013178
11:00+36вюв7690 0.0 10132525
14:00+38вюв5680 0.0 10114371
17:00+39в7675 0.0 10095021
20:00+37вюв57814 0.0 1009174
30 июня, чт
чт3023:00+34вюв815100 0.0 1011399
02:00+32вюв612120 0.0 1011219
05:00+29ююв13140 0.0 101130
08:00+30вюв13130 0.0 1013190
11:00+35юв88110 0.0 10132669
14:00+39вюв7870 0.0 10114022
17:00+39в7770 0.0 10094554
20:00+36в81080 0.0 1010417
1 июля, пт
пт123:00+33вюв612110 0.0 1013265
02:00+31вюв47130 0.0 1013108
05:00+29юв22160 0.0 101213
08:00+31юв23140 0.0 1014140
11:00+36вюв810110 0.0 10143339
14:00+39вюв81080 0.0 10124324
17:00+39вюв7972 0.0 10114829
20:00+37вюв6983 0.0 1012232
2 июля, сб
сб223:00+34вюв33103 0.0 101419
02:00+31вюв111310 0.0 101411
05:00+29ссв11143 0.0 101311
08:00+32в01120 0.0 101542
11:00+37всв3490 0.0 10152154
14:00+40всв6870 0.0 10134385
17:00+41всв8862 0.0 10115138
20:00+38всв69713 0.0 1012260